Time,TemperatureF,DewpointF,PressureIn,WindDirection,WindDirectionDegrees,WindSpeedMPH,WindSpeedGustMPH,Humidity,HourlyPrecipIn,Conditions,Clouds,dailyrainin,SoftwareType,DateUTC
2013-03-23 00:00:00,65.6,55.5,29.72,ENE,74,2.0,4.0,70,0.00,,,0.00,Wunderground v.1.15,2013-03-23 05:00:00,
2013-03-23 00:05:00,65.5,55.8,29.72,East,86,2.0,4.0,71,0.00,,,0.00,Wunderground v.1.15,2013-03-23 05:05:00,
2013-03-23 00:15:00,65.1,55.5,29.72,ESE,115,2.0,4.0,71,0.00,,,0.00,Wunderground v.1.15,2013-03-23 05:15:00,
2013-03-23 00:25:00,64.8,55.2,29.72,NNE,29,1.0,4.0,71,0.00,,,0.00,Wunderground v.1.15,2013-03-23 05:25:00,
2013-03-23 00:35:00,64.2,54.6,29.72,East,86,2.0,4.0,71,0.00,,,0.00,Wunderground v.1.15,2013-03-23 05:35:00,
2013-03-23 00:40:00,63.9,54.7,29.72,NNW,340,2.0,4.0,72,0.00,,,0.00,Wunderground v.1.15,2013-03-23 05:40:00,
2013-03-23 00:50:00,63.3,54.1,29.72,NE,51,1.0,4.0,72,0.00,,,0.00,Wunderground v.1.15,2013-03-23 05:50:00,
2013-03-23 00:55:00,63.0,53.8,29.72,ENE,72,2.0,4.0,72,0.00,,,0.00,Wunderground v.1.15,2013-03-23 05:55:00,
2013-03-23 01:05:00,62.7,53.9,29.72,ENE,64,2.0,4.0,73,0.00,,,0.00,Wunderground v.1.15,2013-03-23 06:05:00,
2013-03-23 01:10:00,62.5,53.3,29.72,East,81,2.0,4.0,72,0.00,,,0.00,Wunderground v.1.15,2013-03-23 06:10:00,
2013-03-23 01:15:00,62.1,53.3,29.72,East,98,2.0,4.0,73,0.00,,,0.00,Wunderground v.1.15,2013-03-23 06:15:00,
2013-03-23 01:25:00,61.8,53.4,29.72,ENE,66,1.0,4.0,74,0.00,,,0.00,Wunderground v.1.15,2013-03-23 06:25:00,
2013-03-23 01:30:00,61.5,53.1,29.72,East,86,2.0,4.0,74,0.00,,,0.00,Wunderground v.1.15,2013-03-23 06:30:00,
2013-03-23 01:40:00,61.0,53.0,29.72,East,82,2.0,4.0,75,0.00,,,0.00,Wunderground v.1.15,2013-03-23 06:40:00,
2013-03-23 01:50:00,60.7,53.1,29.72,NE,35,2.0,4.0,76,0.00,,,0.00,Wunderground v.1.15,2013-03-23 06:50:00,
2013-03-23 01:55:00,60.5,53.3,29.72,East,93,2.0,4.0,77,0.00,,,0.00,Wunderground v.1.15,2013-03-23 06:55:00,
2013-03-23 02:05:00,60.1,52.9,29.71,ESE,113,2.0,4.0,77,0.00,,,0.00,Wunderground v.1.15,2013-03-23 07:05:00,
2013-03-23 02:10:00,60.1,52.9,29.71,ENE,68,2.0,2.0,77,0.00,,,0.00,Wunderground v.1.15,2013-03-23 07:10:00,
2013-03-23 02:15:00,60.0,52.8,29.72,North,352,2.0,4.0,77,0.00,,,0.00,Wunderground v.1.15,2013-03-23 07:15:00,
2013-03-23 02:20:00,60.0,53.1,29.72,East,96,2.0,2.0,78,0.00,,,0.00,Wunderground v.1.15,2013-03-23 07:20:00,
2013-03-23 02:25:00,60.1,53.2,29.72,NE,42,1.0,4.0,78,0.00,,,0.00,Wunderground v.1.15,2013-03-23 07:25:00,
2013-03-23 02:30:00,60.1,52.9,29.72,East,93,1.0,4.0,77,0.00,,,0.00,Wunderground v.1.15,2013-03-23 07:30:00,
2013-03-23 02:35:00,60.1,52.9,29.72,NNW,344,2.0,4.0,77,0.00,,,0.00,Wunderground v.1.15,2013-03-23 07:35:00,
2013-03-23 02:45:00,60.2,53.0,29.72,NNW,344,1.0,4.0,77,0.00,,,0.00,Wunderground v.1.15,2013-03-23 07:45:00,
2013-03-23 02:55:00,60.1,52.9,29.72,North,360,2.0,3.0,77,0.00,,,0.00,Wunderground v.1.15,2013-03-23 07:55:00,
2013-03-23 03:05:00,59.9,52.7,29.72,NNE,24,2.0,4.0,77,0.00,,,0.00,Wunderground v.1.15,2013-03-23 08:05:00,
2013-03-23 03:10:00,59.9,53.0,29.72,NE,39,2.0,2.0,78,0.00,,,0.00,Wunderground v.1.15,2013-03-23 08:10:00,
2013-03-23 03:15:00,59.9,53.0,29.72,NNE,32,2.0,4.0,78,0.00,,,0.00,Wunderground v.1.15,2013-03-23 08:15:00,
2013-03-23 03:20:00,59.9,52.7,29.72,ENE,68,1.0,4.0,77,0.00,,,0.00,Wunderground v.1.15,2013-03-23 08:20:00,
2013-03-23 03:25:00,59.8,52.9,29.72,ENE,65,2.0,4.0,78,0.00,,,0.00,Wunderground v.1.15,2013-03-23 08:25:00,
2013-03-23 03:30:00,59.6,52.7,29.72,ENE,67,2.0,2.0,78,0.00,,,0.00,Wunderground v.1.15,2013-03-23 08:30:00,
2013-03-23 03:35:00,59.6,52.7,29.72,NNE,16,2.0,4.0,78,0.00,,,0.00,Wunderground v.1.15,2013-03-23 08:35:00,
2013-03-23 03:45:00,59.7,53.2,29.72,ENE,59,2.0,4.0,79,0.00,,,0.00,Wunderground v.1.15,2013-03-23 08:45:00,
2013-03-23 03:50:00,59.8,53.3,29.72,North,8,1.0,4.0,79,0.00,,,0.00,Wunderground v.1.15,2013-03-23 08:50:00,
2013-03-23 03:55:00,59.8,53.3,29.72,North,356,2.0,4.0,79,0.00,,,0.00,Wunderground v.1.15,2013-03-23 08:55:00,
2013-03-23 04:00:00,59.9,53.4,29.72,NNE,23,2.0,4.0,79,0.00,,,0.00,Wunderground v.1.15,2013-03-23 09:00:00,
2013-03-23 04:10:00,59.9,53.7,29.72,NE,49,2.0,2.0,80,0.00,,,0.00,Wunderground v.1.15,2013-03-23 09:10:00,
2013-03-23 04:15:00,59.9,53.7,29.71,NE,49,2.0,4.0,80,0.00,,,0.00,Wunderground v.1.15,2013-03-23 09:15:00,
2013-03-23 04:20:00,59.9,53.7,29.72,NE,41,1.0,4.0,80,0.00,,,0.00,Wunderground v.1.15,2013-03-23 09:20:00,
2013-03-23 04:29:00,59.9,53.7,29.72,NE,34,1.0,4.0,80,0.00,,,0.00,Wunderground v.1.15,2013-03-23 09:29:00,
2013-03-23 04:40:00,59.8,53.3,29.71,NNE,12,2.0,4.0,79,0.00,,,0.00,Wunderground v.1.15,2013-03-23 09:40:00,
2013-03-23 04:45:00,59.6,53.1,29.72,NE,46,2.0,4.0,79,0.00,,,0.00,Wunderground v.1.15,2013-03-23 09:45:00,
2013-03-23 04:50:00,59.5,53.0,29.72,NNW,338,2.0,2.0,79,0.00,,,0.00,Wunderground v.1.15,2013-03-23 09:50:00,
2013-03-23 04:55:00,59.4,53.2,29.72,NNW,332,2.0,4.0,80,0.00,,,0.00,Wunderground v.1.15,2013-03-23 09:55:00,
2013-03-23 05:00:00,59.4,53.6,29.72,ENE,64,2.0,2.0,81,0.00,,,0.00,Wunderground v.1.15,2013-03-23 10:00:00,
2013-03-23 05:10:00,59.2,53.4,29.72,ENE,63,1.0,1.0,81,0.00,,,0.00,Wunderground v.1.15,2013-03-23 10:10:00,
2013-03-23 05:15:00,59.1,53.3,29.72,ENE,68,1.0,4.0,81,0.00,,,0.00,Wunderground v.1.15,2013-03-23 10:15:00,
2013-03-23 05:20:00,59.0,53.2,29.72,ENE,65,1.0,4.0,81,0.00,,,0.00,Wunderground v.1.15,2013-03-23 10:20:00,
2013-03-23 05:30:00,59.0,53.2,29.71,NE,50,1.0,4.0,81,0.00,,,0.00,Wunderground v.1.15,2013-03-23 10:30:00,
2013-03-23 05:35:00,59.0,53.2,29.71,ESE,103,1.0,4.0,81,0.00,,,0.00,Wunderground v.1.15,2013-03-23 10:35:00,
2013-03-23 05:45:00,58.8,54.0,29.71,NNE,26,1.0,4.0,84,0.00,,,0.00,Wunderground v.1.15,2013-03-23 10:45:00,
2013-03-23 05:54:00,58.5,54.0,29.70,ENE,59,2.0,4.0,85,0.00,,,0.00,Wunderground v.1.15,2013-03-23 10:54:00,
2013-03-23 06:00:00,58.5,53.7,29.70,East,84,2.0,2.0,84,0.00,,,0.00,Wunderground v.1.15,2013-03-23 11:00:00,
2013-03-23 06:10:00,58.4,53.6,29.70,East,89,1.0,4.0,84,0.00,,,0.00,Wunderground v.1.15,2013-03-23 11:10:00,
2013-03-23 06:19:00,58.3,53.5,29.70,WNW,285,2.0,2.0,84,0.00,,,0.00,Wunderground v.1.15,2013-03-23 11:19:00,
2013-03-23 06:25:00,58.2,53.4,29.70,NNE,27,2.0,4.0,84,0.00,,,0.00,Wunderground v.1.15,2013-03-23 11:25:00,
2013-03-23 06:30:00,58.0,53.2,29.70,ENE,72,2.0,2.0,84,0.00,,,0.00,Wunderground v.1.15,2013-03-23 11:30:00,
2013-03-23 06:35:00,57.9,53.4,29.70,ESE,103,2.0,4.0,85,0.00,,,0.00,Wunderground v.1.15,2013-03-23 11:35:00,
2013-03-23 06:40:00,57.8,53.3,29.70,ENE,65,2.0,4.0,85,0.00,,,0.00,Wunderground v.1.15,2013-03-23 11:40:00,
2013-03-23 06:45:00,57.7,53.2,29.70,NNW,335,2.0,4.0,85,0.00,,,0.00,Wunderground v.1.15,2013-03-23 11:45:00,
2013-03-23 06:50:00,57.6,53.1,29.70,East,79,2.0,2.0,85,0.00,,,0.00,Wunderground v.1.15,2013-03-23 11:50:00,
2013-03-23 06:55:00,57.5,53.0,29.70,East,98,2.0,4.0,85,0.00,,,0.00,Wunderground v.1.15,2013-03-23 11:55:00,
2013-03-23 07:05:00,57.4,52.9,29.71,ENE,63,1.0,4.0,85,0.00,,,0.00,Wunderground v.1.15,2013-03-23 12:05:00,
2013-03-23 07:14:00,57.4,52.9,29.71,ENE,77,1.0,2.0,85,0.00,,,0.00,Wunderground v.1.15,2013-03-23 12:14:00,
2013-03-23 07:25:00,57.4,53.2,29.71,ENE,64,1.0,4.0,86,0.00,,,0.00,Wunderground v.1.15,2013-03-23 12:25:00,
2013-03-23 07:30:00,57.4,53.2,29.72,NNE,18,1.0,1.0,86,0.00,,,0.00,Wunderground v.1.15,2013-03-23 12:30:00,
2013-03-23 07:35:00,57.4,53.2,29.72,ENE,72,1.0,2.0,86,0.00,,,0.00,Wunderground v.1.15,2013-03-23 12:35:00,
2013-03-23 07:40:00,57.4,53.6,29.72,ENE,65,1.0,1.0,87,0.00,,,0.00,Wunderground v.1.15,2013-03-23 12:40:00,
2013-03-23 07:50:00,57.4,53.6,29.72,NE,46,1.0,4.0,87,0.00,,,0.00,Wunderground v.1.15,2013-03-23 12:50:00,
2013-03-23 08:00:00,57.6,53.8,29.72,ENE,70,1.0,4.0,87,0.00,,,0.00,Wunderground v.1.15,2013-03-23 13:00:00,
2013-03-23 08:05:00,57.5,53.3,29.73,ENE,78,1.0,4.0,86,0.00,,,0.00,Wunderground v.1.15,2013-03-23 13:05:00,
2013-03-23 08:10:00,57.6,53.8,29.73,East,88,2.0,4.0,87,0.00,,,0.00,Wunderground v.1.15,2013-03-23 13:10:00,
2013-03-23 08:20:00,57.6,53.8,29.73,NE,56,1.0,1.0,87,0.00,,,0.00,Wunderground v.1.15,2013-03-23 13:20:00,
2013-03-23 08:30:00,57.7,53.9,29.73,NE,56,1.0,4.0,87,0.00,,,0.00,Wunderground v.1.15,2013-03-23 13:30:00,
2013-03-23 08:35:00,57.8,54.0,29.73,ENE,75,1.0,4.0,87,0.00,,,0.00,Wunderground v.1.15,2013-03-23 13:35:00,
2013-03-23 08:45:00,58.1,53.9,29.74,NE,42,1.0,4.0,86,0.00,,,0.00,Wunderground v.1.15,2013-03-23 13:45:00,
2013-03-23 08:50:00,58.3,54.1,29.74,NE,55,1.0,4.0,86,0.00,,,0.00,Wunderground v.1.15,2013-03-23 13:50:00,
2013-03-23 09:00:00,58.2,53.7,29.75,North,349,2.0,4.0,85,0.00,,,0.00,Wunderground v.1.15,2013-03-23 14:00:00,
2013-03-23 09:05:00,58.2,53.7,29.75,ENE,58,2.0,4.0,85,0.00,,,0.00,Wunderground v.1.15,2013-03-23 14:05:00,
2013-03-23 09:10:00,58.2,53.7,29.75,NNW,328,2.0,2.0,85,0.00,,,0.00,Wunderground v.1.15,2013-03-23 14:10:00,
2013-03-23 09:20:00,58.0,53.5,29.76,NE,47,3.0,4.0,85,0.00,,,0.00,Wunderground v.1.15,2013-03-23 14:20:00,
2013-03-23 09:25:00,57.9,53.4,29.77,NE,37,3.0,4.0,85,0.00,,,0.00,Wunderground v.1.15,2013-03-23 14:25:00,
2013-03-23 09:35:00,57.9,53.4,29.77,NW,307,3.0,4.0,85,0.00,,,0.00,Wunderground v.1.15,2013-03-23 14:35:00,
2013-03-23 09:40:00,57.8,53.3,29.77,ENE,61,2.0,2.0,85,0.00,,,0.00,Wunderground v.1.15,2013-03-23 14:40:00,
2013-03-23 09:50:00,58.0,53.5,29.77,NNE,23,2.0,4.0,85,0.00,,,0.00,Wunderground v.1.15,2013-03-23 14:50:00,
2013-03-23 09:55:00,57.8,53.3,29.77,NE,36,2.0,4.0,85,0.00,,,0.00,Wunderground v.1.15,2013-03-23 14:55:00,
2013-03-23 10:00:00,57.8,53.3,29.77,NNW,327,2.0,4.0,85,0.00,,,0.00,Wunderground v.1.15,2013-03-23 15:00:00,
2013-03-23 10:05:00,57.7,53.2,29.77,ENE,60,3.0,4.0,85,0.00,,,0.00,Wunderground v.1.15,2013-03-23 15:05:00,
2013-03-23 10:15:00,57.5,53.0,29.77,ENE,76,3.0,4.0,85,0.00,,,0.00,Wunderground v.1.15,2013-03-23 15:15:00,
2013-03-23 10:24:00,57.7,52.9,29.77,NNE,25,2.0,4.0,84,0.00,,,0.00,Wunderground v.1.15,2013-03-23 15:24:00,
2013-03-23 10:30:00,57.7,52.9,29.77,NE,43,3.0,3.0,84,0.00,,,0.00,Wunderground v.1.15,2013-03-23 15:30:00,
2013-03-23 10:35:00,57.4,52.6,29.77,NNW,333,4.0,4.0,84,0.00,,,0.00,Wunderground v.1.15,2013-03-23 15:35:00,
2013-03-23 10:40:00,57.1,52.3,29.78,NW,325,3.0,3.0,84,0.00,,,0.00,Wunderground v.1.15,2013-03-23 15:40:00,
2013-03-23 10:45:00,57.1,52.6,29.78,NE,43,2.0,4.0,85,0.00,,,0.00,Wunderground v.1.15,2013-03-23 15:45:00,
2013-03-23 10:50:00,57.1,52.6,29.78,ENE,61,2.0,4.0,85,0.00,,,0.00,Wunderground v.1.15,2013-03-23 15:50:00,
2013-03-23 10:55:00,56.9,52.8,29.78,East,79,2.0,4.0,86,0.00,,,0.00,Wunderground v.1.15,2013-03-23 15:55:00,
2013-03-23 11:00:00,56.6,53.1,29.77,ENE,74,3.0,3.0,88,0.00,,,0.00,Wunderground v.1.15,2013-03-23 16:00:00,
2013-03-23 11:05:00,56.8,53.9,29.76,NE,51,3.0,6.0,90,0.00,,,0.00,Wunderground v.1.15,2013-03-23 16:05:00,
2013-03-23 11:10:00,57.6,55.0,29.77,NNE,29,3.0,4.0,91,0.00,,,0.00,Wunderground v.1.15,2013-03-23 16:10:00,
2013-03-23 11:20:00,57.6,54.1,29.77,NNW,338,2.0,2.0,88,0.00,,,0.00,Wunderground v.1.15,2013-03-23 16:20:00,
2013-03-23 11:25:00,57.9,54.4,29.77,ENE,60,2.0,4.0,88,0.00,,,0.00,Wunderground v.1.15,2013-03-23 16:25:00,
2013-03-23 11:30:00,58.5,54.6,29.77,NNW,328,2.0,4.0,87,0.00,,,0.00,Wunderground v.1.15,2013-03-23 16:30:00,
2013-03-23 11:35:00,59.3,55.1,29.77,NE,41,1.0,5.0,86,0.00,,,0.00,Wunderground v.1.15,2013-03-23 16:35:00,
2013-03-23 11:45:00,60.5,56.0,29.75,ENE,70,2.0,4.0,85,0.00,,,0.00,Wunderground v.1.15,2013-03-23 16:45:00,
2013-03-23 11:55:00,61.8,56.6,29.75,NNE,18,1.0,4.0,83,0.00,,,0.00,Wunderground v.1.15,2013-03-23 16:55:00,
2013-03-23 12:00:00,62.4,56.1,29.75,NNE,19,2.0,2.0,80,0.00,,,0.00,Wunderground v.1.15,2013-03-23 17:00:00,
2013-03-23 12:05:00,62.9,56.3,29.75,East,94,1.0,4.0,79,0.00,,,0.00,Wunderground v.1.15,2013-03-23 17:05:00,
2013-03-23 12:10:00,63.3,56.3,29.75,NW,316,1.0,1.0,78,0.00,,,0.00,Wunderground v.1.15,2013-03-23 17:10:00,
2013-03-23 12:20:00,63.7,56.7,29.74,NNW,332,2.0,2.0,78,0.00,,,0.00,Wunderground v.1.15,2013-03-23 17:20:00,
2013-03-23 12:30:00,65.1,57.7,29.74,East,89,2.0,4.0,77,0.00,,,0.00,Wunderground v.1.15,2013-03-23 17:30:00,
2013-03-23 12:35:00,66.1,58.3,29.74,NW,311,2.0,4.0,76,0.00,,,0.00,Wunderground v.1.15,2013-03-23 17:35:00,
2013-03-23 12:40:00,66.9,58.7,29.74,NNE,33,2.0,2.0,75,0.00,,,0.00,Wunderground v.1.15,2013-03-23 17:40:00,
2013-03-23 12:45:00,67.4,58.8,29.74,West,276,1.0,4.0,74,0.00,,,0.00,Wunderground v.1.15,2013-03-23 17:45:00,
2013-03-23 12:50:00,68.1,59.1,29.73,SE,141,1.0,4.0,73,0.00,,,0.00,Wunderground v.1.15,2013-03-23 17:50:00,
2013-03-23 12:55:00,68.1,58.7,29.74,North,355,1.0,4.0,72,0.00,,,0.00,Wunderground v.1.15,2013-03-23 17:55:00,
2013-03-23 13:05:00,68.5,59.1,29.73,NNW,334,1.0,4.0,72,0.00,,,0.00,Wunderground v.1.15,2013-03-23 18:05:00,
2013-03-23 13:15:00,69.5,59.7,29.72,ENE,57,2.0,4.0,71,0.00,,,0.00,Wunderground v.1.15,2013-03-23 18:15:00,
2013-03-23 13:20:00,69.7,59.9,29.72,NE,34,2.0,4.0,71,0.00,,,0.00,Wunderground v.1.15,2013-03-23 18:20:00,
2013-03-23 13:30:00,71.2,61.7,29.72,North,349,2.0,4.0,72,0.00,,,0.00,Wunderground v.1.15,2013-03-23 18:30:00,
2013-03-23 13:35:00,71.6,60.9,29.71,NNE,12,1.0,4.0,69,0.00,,,0.00,Wunderground v.1.15,2013-03-23 18:35:00,
2013-03-23 13:40:00,72.0,61.3,29.71,NNW,334,1.0,4.0,69,0.00,,,0.00,Wunderground v.1.15,2013-03-23 18:40:00,
2013-03-23 13:45:00,72.2,61.5,29.71,SE,131,2.0,4.0,69,0.00,,,0.00,Wunderground v.1.15,2013-03-23 18:45:00,
2013-03-23 13:55:00,73.1,61.5,29.70,North,355,1.0,4.0,67,0.00,,,0.00,Wunderground v.1.15,2013-03-23 18:55:00,
2013-03-23 14:00:00,73.9,61.8,29.69,North,352,1.0,4.0,66,0.00,,,0.00,Wunderground v.1.15,2013-03-23 19:00:00,
2013-03-23 14:05:00,73.7,61.6,29.69,WNW,300,2.0,4.0,66,0.00,,,0.00,Wunderground v.1.15,2013-03-23 19:05:00,
2013-03-23 14:10:00,74.5,63.2,29.68,ENE,67,1.0,4.0,68,0.00,,,0.00,Wunderground v.1.15,2013-03-23 19:10:00,
2013-03-23 14:15:00,75.1,63.0,29.68,ESE,103,1.0,4.0,66,0.00,,,0.00,Wunderground v.1.15,2013-03-23 19:15:00,
2013-03-23 14:25:00,76.0,63.4,29.67,WSW,250,1.0,4.0,65,0.00,,,0.00,Wunderground v.1.15,2013-03-23 19:25:00,
2013-03-23 14:30:00,76.4,63.3,29.67,WNW,289,1.0,4.0,64,0.00,,,0.00,Wunderground v.1.15,2013-03-23 19:30:00,
2013-03-23 14:35:00,77.4,64.3,29.67,East,88,1.0,4.0,64,0.00,,,0.00,Wunderground v.1.15,2013-03-23 19:35:00,
2013-03-23 14:40:00,78.2,64.6,29.66,SE,142,1.0,1.0,63,0.00,,,0.00,Wunderground v.1.15,2013-03-23 19:40:00,
2013-03-23 14:45:00,79.4,65.2,29.66,West,260,1.0,2.0,62,0.00,,,0.00,Wunderground v.1.15,2013-03-23 19:45:00,
2013-03-23 14:50:00,79.8,64.7,29.66,WSW,250,1.0,4.0,60,0.00,,,0.00,Wunderground v.1.15,2013-03-23 19:50:00,
2013-03-23 15:00:00,79.9,65.7,29.65,SSW,203,1.0,4.0,62,0.00,,,0.00,Wunderground v.1.15,2013-03-23 20:00:00,
2013-03-23 15:10:00,80.5,65.8,29.64,ESE,116,1.0,4.0,61,0.00,,,0.00,Wunderground v.1.15,2013-03-23 20:10:00,
2013-03-23 15:15:00,80.9,66.2,29.64,SW,229,1.0,4.0,61,0.00,,,0.00,Wunderground v.1.15,2013-03-23 20:15:00,
2013-03-23 15:20:00,81.2,66.5,29.63,WSW,245,2.0,2.0,61,0.00,,,0.00,Wunderground v.1.15,2013-03-23 20:20:00,
2013-03-23 15:25:00,81.8,65.6,29.63,SW,214,2.0,4.0,58,0.00,,,0.00,Wunderground v.1.15,2013-03-23 20:25:00,
2013-03-23 15:35:00,81.1,64.4,29.63,ESE,103,2.0,4.0,57,0.00,,,0.00,Wunderground v.1.15,2013-03-23 20:35:00,
2013-03-23 15:40:00,81.5,65.8,29.63,ESE,119,2.0,2.0,59,0.00,,,0.00,Wunderground v.1.15,2013-03-23 20:40:00,
2013-03-23 15:45:00,81.9,65.7,29.62,West,266,1.0,4.0,58,0.00,,,0.00,Wunderground v.1.15,2013-03-23 20:45:00,
2013-03-23 15:50:00,82.1,65.9,29.62,SSW,195,1.0,1.0,58,0.00,,,0.00,Wunderground v.1.15,2013-03-23 20:50:00,
2013-03-23 15:55:00,82.4,65.6,29.61,WNW,283,1.0,4.0,57,0.00,,,0.00,Wunderground v.1.15,2013-03-23 20:55:00,
2013-03-23 16:00:00,81.9,64.7,29.61,SE,133,1.0,4.0,56,0.00,,,0.00,Wunderground v.1.15,2013-03-23 21:00:00,
2013-03-23 16:05:00,81.8,65.6,29.61,ESE,121,1.0,4.0,58,0.00,,,0.00,Wunderground v.1.15,2013-03-23 21:05:00,
2013-03-23 16:10:00,82.0,65.8,29.61,SW,224,2.0,2.0,58,0.00,,,0.00,Wunderground v.1.15,2013-03-23 21:10:00,
2013-03-23 16:15:00,82.7,64.9,29.61,WSW,238,2.0,4.0,55,0.00,,,0.00,Wunderground v.1.15,2013-03-23 21:15:00,
2013-03-23 16:25:00,83.5,65.1,29.60,South,187,1.0,4.0,54,0.00,,,0.00,Wunderground v.1.15,2013-03-23 21:25:00,
2013-03-23 16:30:00,84.2,66.3,29.60,North,356,1.0,1.0,55,0.00,,,0.00,Wunderground v.1.15,2013-03-23 21:30:00,
2013-03-23 16:40:00,84.8,65.2,29.59,SE,131,1.0,4.0,52,0.00,,,0.00,Wunderground v.1.15,2013-03-23 21:40:00,
2013-03-23 16:45:00,84.7,64.6,29.59,WSW,255,1.0,4.0,51,0.00,,,0.00,Wunderground v.1.15,2013-03-23 21:45:00,
2013-03-23 16:50:00,84.3,65.3,29.59,ENE,68,1.0,1.0,53,0.00,,,0.00,Wunderground v.1.15,2013-03-23 21:50:00,
2013-03-23 17:00:00,84.9,64.8,29.59,SSE,155,1.0,4.0,51,0.00,,,0.00,Wunderground v.1.15,2013-03-23 22:00:00,
2013-03-23 17:05:00,84.5,64.9,29.59,SE,129,1.0,4.0,52,0.00,,,0.00,Wunderground v.1.15,2013-03-23 22:05:00,
2013-03-23 17:15:00,84.4,64.3,29.59,SW,217,1.0,4.0,51,0.00,,,0.00,Wunderground v.1.15,2013-03-23 22:15:00,
2013-03-23 17:20:00,84.6,65.0,29.59,SE,131,1.0,4.0,52,0.00,,,0.00,Wunderground v.1.15,2013-03-23 22:20:00,
2013-03-23 17:25:00,84.0,63.9,29.58,SE,141,1.0,4.0,51,0.00,,,0.00,Wunderground v.1.15,2013-03-23 22:25:00,
2013-03-23 17:30:00,84.0,65.0,29.58,West,274,1.0,1.0,53,0.00,,,0.00,Wunderground v.1.15,2013-03-23 22:30:00,
2013-03-23 17:39:00,84.3,64.8,29.58,ESE,105,1.0,4.0,52,0.00,,,0.00,Wunderground v.1.15,2013-03-23 22:39:00,
2013-03-23 17:45:00,84.2,64.7,29.58,East,101,1.0,4.0,52,0.00,,,0.00,Wunderground v.1.15,2013-03-23 22:45:00,
2013-03-23 17:50:00,83.9,64.9,29.58,ESE,113,1.0,4.0,53,0.00,,,0.00,Wunderground v.1.15,2013-03-23 22:50:00,
2013-03-23 18:00:00,83.3,64.9,29.58,East,96,1.0,1.0,54,0.00,,,0.00,Wunderground v.1.15,2013-03-23 23:00:00,
2013-03-23 18:05:00,83.4,64.5,29.58,SE,127,1.0,4.0,53,0.00,,,0.00,Wunderground v.1.15,2013-03-23 23:05:00,
2013-03-23 18:10:00,83.5,65.1,29.59,WSW,254,1.0,1.0,54,0.00,,,0.00,Wunderground v.1.15,2013-03-23 23:10:00,
2013-03-23 18:20:00,83.1,64.2,29.59,SSE,160,1.0,1.0,53,0.00,,,0.00,Wunderground v.1.15,2013-03-23 23:20:00,
2013-03-23 18:30:00,82.7,64.4,29.59,East,95,1.0,1.0,54,0.00,,,0.00,Wunderground v.1.15,2013-03-23 23:30:00,
2013-03-23 18:35:00,82.7,64.9,29.59,SE,134,0.0,4.0,55,0.00,,,0.00,Wunderground v.1.15,2013-03-23 23:35:00,
2013-03-23 18:45:00,82.6,64.3,29.59,ESE,110,0.0,4.0,54,0.00,,,0.00,Wunderground v.1.15,2013-03-23 23:45:00,
2013-03-23 18:50:00,82.3,64.0,29.59,East,97,1.0,1.0,54,0.00,,,0.00,Wunderground v.1.15,2013-03-23 23:50:00,
2013-03-23 18:55:00,81.8,64.1,29.59,East,97,0.0,4.0,55,0.00,,,0.00,Wunderground v.1.15,2013-03-23 23:55:00,
2013-03-23 19:05:00,81.0,64.3,29.60,ENE,70,0.0,4.0,57,0.00,,,0.00,Wunderground v.1.15,2013-03-24 00:05:00,
2013-03-23 19:10:00,80.6,64.0,29.60,ESE,108,0.0,4.0,57,0.00,,,0.00,Wunderground v.1.15,2013-03-24 00:10:00,
2013-03-23 19:15:00,80.3,63.7,29.59,ESE,113,0.0,4.0,57,0.00,,,0.00,Wunderground v.1.15,2013-03-24 00:15:00,
2013-03-23 19:20:00,79.9,63.8,29.60,East,96,0.0,4.0,58,0.00,,,0.00,Wunderground v.1.15,2013-03-24 00:20:00,
2013-03-23 19:30:00,79.0,63.4,29.60,ESE,107,0.0,4.0,59,0.00,,,0.00,Wunderground v.1.15,2013-03-24 00:30:00,
2013-03-23 19:35:00,78.6,64.0,29.60,ESE,105,0.0,4.0,61,0.00,,,0.00,Wunderground v.1.15,2013-03-24 00:35:00,
2013-03-23 19:40:00,78.1,63.6,29.60,ESE,105,0.0,4.0,61,0.00,,,0.00,Wunderground v.1.15,2013-03-24 00:40:00,
2013-03-23 19:45:00,77.5,63.5,29.61,ESE,106,0.0,4.0,62,0.00,,,0.00,Wunderground v.1.15,2013-03-24 00:45:00,
2013-03-23 19:50:00,76.9,63.3,29.61,East,87,0.0,4.0,63,0.00,,,0.00,Wunderground v.1.15,2013-03-24 00:50:00,
2013-03-23 19:55:00,76.6,63.1,29.61,ESE,105,0.0,4.0,63,0.00,,,0.00,Wunderground v.1.15,2013-03-24 00:55:00,
2013-03-23 20:00:00,76.2,63.1,29.61,ESE,106,0.0,4.0,64,0.00,,,0.00,Wunderground v.1.15,2013-03-24 01:00:00,
2013-03-23 20:05:00,75.9,62.8,29.61,ESE,105,0.0,4.0,64,0.00,,,0.00,Wunderground v.1.15,2013-03-24 01:05:00,
2013-03-23 20:15:00,75.1,62.5,29.62,ESE,105,0.0,4.0,65,0.00,,,0.00,Wunderground v.1.15,2013-03-24 01:15:00,
2013-03-23 20:25:00,74.3,62.6,29.62,ESE,106,0.0,4.0,67,0.00,,,0.00,Wunderground v.1.15,2013-03-24 01:25:00,
2013-03-23 20:30:00,73.8,62.6,29.62,ESE,105,0.0,4.0,68,0.00,,,0.00,Wunderground v.1.15,2013-03-24 01:30:00,
2013-03-23 20:35:00,73.5,62.7,29.63,ESE,105,0.0,4.0,69,0.00,,,0.00,Wunderground v.1.15,2013-03-24 01:35:00,
2013-03-23 20:40:00,73.2,62.4,29.63,ESE,105,0.0,4.0,69,0.00,,,0.00,Wunderground v.1.15,2013-03-24 01:40:00,
2013-03-23 20:50:00,72.9,62.1,29.63,East,100,0.0,4.0,69,0.00,,,0.00,Wunderground v.1.15,2013-03-24 01:50:00,
2013-03-23 21:00:00,72.7,61.9,29.64,East,84,0.0,4.0,69,0.00,,,0.00,Wunderground v.1.15,2013-03-24 02:00:00,
2013-03-23 21:05:00,72.4,61.7,29.64,East,83,0.0,4.0,69,0.00,,,0.00,Wunderground v.1.15,2013-03-24 02:05:00,
2013-03-23 21:10:00,72.1,61.8,29.64,East,83,0.0,4.0,70,0.00,,,0.00,Wunderground v.1.15,2013-03-24 02:10:00,
2013-03-23 21:15:00,71.8,61.5,29.64,East,83,0.0,4.0,70,0.00,,,0.00,Wunderground v.1.15,2013-03-24 02:15:00,
2013-03-23 21:25:00,71.1,61.2,29.65,East,83,0.0,4.0,71,0.00,,,0.00,Wunderground v.1.15,2013-03-24 02:25:00,
2013-03-23 21:30:00,71.0,61.5,29.65,East,83,0.0,4.0,72,0.00,,,0.00,Wunderground v.1.15,2013-03-24 02:30:00,
2013-03-23 21:40:00,71.1,61.2,29.66,ENE,67,0.0,4.0,71,0.00,,,0.00,Wunderground v.1.15,2013-03-24 02:40:00,
2013-03-23 21:50:00,70.8,61.3,29.66,ENE,65,0.0,4.0,72,0.00,,,0.00,Wunderground v.1.15,2013-03-24 02:50:00,
2013-03-23 22:00:00,70.5,61.0,29.66,ENE,65,0.0,4.0,72,0.00,,,0.00,Wunderground v.1.15,2013-03-24 03:00:00,
2013-03-23 22:05:00,70.3,60.8,29.66,ENE,65,0.0,4.0,72,0.00,,,0.00,Wunderground v.1.15,2013-03-24 03:05:00,
2013-03-23 22:10:00,70.0,60.9,29.67,ENE,65,0.0,4.0,73,0.00,,,0.00,Wunderground v.1.15,2013-03-24 03:10:00,
2013-03-23 22:15:00,69.8,60.8,29.67,ENE,65,0.0,4.0,73,0.00,,,0.00,Wunderground v.1.15,2013-03-24 03:15:00,
2013-03-23 22:20:00,69.5,60.8,29.67,ENE,65,0.0,4.0,74,0.00,,,0.00,Wunderground v.1.15,2013-03-24 03:20:00,
2013-03-23 22:30:00,69.2,60.6,29.67,ENE,65,0.0,4.0,74,0.00,,,0.00,Wunderground v.1.15,2013-03-24 03:30:00,
2013-03-23 22:35:00,68.9,60.6,29.67,ENE,65,0.0,4.0,75,0.00,,,0.00,Wunderground v.1.15,2013-03-24 03:35:00,
2013-03-23 22:40:00,68.5,60.3,29.68,ENE,65,0.0,4.0,75,0.00,,,0.00,Wunderground v.1.15,2013-03-24 03:40:00,
2013-03-23 22:45:00,68.2,60.3,29.68,ENE,65,0.0,4.0,76,0.00,,,0.00,Wunderground v.1.15,2013-03-24 03:45:00,
2013-03-23 22:55:00,67.5,60.0,29.68,ENE,65,0.0,4.0,77,0.00,,,0.00,Wunderground v.1.15,2013-03-24 03:55:00,
2013-03-23 23:00:00,67.3,60.2,29.68,ENE,65,0.0,4.0,78,0.00,,,0.00,Wunderground v.1.15,2013-03-24 04:00:00,
2013-03-23 23:05:00,67.0,60.3,29.68,ENE,65,0.0,4.0,79,0.00,,,0.00,Wunderground v.1.15,2013-03-24 04:05:00,
2013-03-23 23:10:00,66.6,59.9,29.68,ENE,65,0.0,4.0,79,0.00,,,0.00,Wunderground v.1.15,2013-03-24 04:10:00,
2013-03-23 23:15:00,66.3,59.9,29.68,ENE,65,0.0,4.0,80,0.00,,,0.00,Wunderground v.1.15,2013-03-24 04:15:00,
2013-03-23 23:20:00,66.1,60.1,29.68,ENE,65,0.0,4.0,81,0.00,,,0.00,Wunderground v.1.15,2013-03-24 04:20:00,
2013-03-23 23:25:00,65.9,59.9,29.69,ENE,65,0.0,4.0,81,0.00,,,0.00,Wunderground v.1.15,2013-03-24 04:25:00,
2013-03-23 23:30:00,65.7,60.1,29.69,ENE,65,0.0,4.0,82,0.00,,,0.00,Wunderground v.1.15,2013-03-24 04:30:00,
2013-03-23 23:35:00,65.6,60.0,29.69,ENE,65,0.0,4.0,82,0.00,,,0.00,Wunderground v.1.15,2013-03-24 04:35:00,
2013-03-23 23:40:00,65.7,60.1,29.70,NE,44,0.0,4.0,82,0.00,,,0.00,Wunderground v.1.15,2013-03-24 04:40:00,
2013-03-23 23:45:00,66.1,60.4,29.71,NE,35,0.0,4.0,82,0.00,,,0.00,Wunderground v.1.15,2013-03-24 04:45:00,
2013-03-23 23:55:00,66.4,60.0,29.71,NW,322,0.0,4.0,80,0.00,,,0.00,Wunderground v.1.15,2013-03-24 04:55:00,